Regional Weather Roundup
Issued by NWS

Home | Current Version | Previous Version | Graphics & Text | Print | Product List | Glossary Off
Versions: 1 2 3 4 5 6 7 8 9 10 11 12 13 14 15 16 17 18 19 20 21 22 23 24 25 26 27 28 29 30 31 32 33 34 35 36 37 38 39 40 41 42 43 44 45 46 47 48 49 50

000
ASUS43 KDMX 310407
RWRIA

WEATHER ROUNDUP FOR IOWA
NATIONAL WEATHER SERVICE DES MOINES IA
1100 PM CDT SAT AUG 30 2014

NOTE: "FAIR" INDICATES FEW OR NO CLOUDS BELOW 12,000 FEET WITH NO
SIGNIFICANT WEATHER AND/OR OBSTRUCTIONS TO VISIBILITY.

* - THESE STATIONS ARE NOT NWS STATIONS...THUS NOT UNDER NWS
QUALITY CONTROL.  THEY ALSO DO NOT REPORT WEATHER SUCH
AS PRECIPITATION OR FOG.

IAZ001>003-012>014-020>022-031>034-043>046-310500-
   NORTHWEST IOWA

CITY           SKY/WX    TMP DP  RH WIND       PRES   REMARKS
CARROLL *      CLEAR     61  61 100 CALM      29.89S FOG
CHEROKEE *     CLEAR     61  61 100 SE3       29.88S
DENISON *      CLEAR     64  64 100 E5        29.87S
LE MARS *      CLEAR     66  61  82 VRB7      29.85F
ORANGE CITY *  CLEAR     64  59  82 SE3       29.87S
SHELDON *      CLEAR     61  61 100 S6        29.86F
SIOUX CITY     CLEAR     66  62  87 SE9       29.84F
SPENCER        CLEAR     62  59  90 S6        29.89R
STORM LAKE *   CLEAR     63  30  29 S8        29.90R
$$

IAZ055>058-069>071-079>083-090>094-310500-
   SOUTHWEST IOWA

CITY           SKY/WX    TMP DP  RH WIND       PRES   REMARKS
ATLANTIC *     CLEAR     64  63  94 N3        29.89S
AUDUBON *      CLEAR     64  63  94 CALM      29.91S
CLARINDA *     CLEAR     66  66 100 CALM      29.90F
COUNCIL BLFS * CLEAR     68  66  94 SE5       29.87S
CRESTON *      CLEAR     66  64  94 SE6       29.91F
HARLAN  *      CLEAR     64  64 100 CALM      29.92S
LAMONI         CLEAR     73  66  78 S6        29.91S
RED OAK *      CLEAR     68  64  88 CALM      29.89S
SHENANDOAH *   CLEAR     70  66  88 SE5       29.89S
$$

IAZ047>049-059>061-072>074-084-310500-
   CENTRAL IOWA

CITY           SKY/WX    TMP DP  RH WIND       PRES   REMARKS
AMES           CLEAR     65  63  93 CALM      29.90S
ANKENY *       CLEAR     64  64 100 CALM      29.89F
CHARITON *     CLEAR     68  66  94 CALM      29.91S
DES MOINES     CLEAR     70  65  84 CALM      29.89S
GRINNELL*      MOCLDY    68  64  88 CALM      29.91S
KNOXVILLE *    CLEAR     70  68  94 CALM      29.89F
MARSHALLTOWN   CLEAR     67  66  97 CALM      29.90R
PELLA *        CLEAR     68  68 100 CALM      29.91S
PERRY *          N/A     64  63  94 SE3       29.89F
$$

IAZ004>006-015-016-023>025-035-036-310500-
   NORTH CENTRAL IOWA

CITY           SKY/WX    TMP DP  RH WIND       PRES   REMARKS
ALGONA *       CLEAR     64  63  94 S6        29.90R
CLARION *      CLEAR     63  63 100 SE5       29.90S
ESTHERVILLE    CLEAR     60  60 100 S7        29.88S
FORT DODGE *   CLEAR     61  59  94 CALM      29.90F
MASON CITY     PTCLDY    63  61  93 CALM      29.92R
FOREST CITY *  MOCLDY    61  61 100 CALM      29.90S FOG
IOWA FALLS *     N/A     63  61  94 CALM      29.91S
$$

IAZ007>011-017>019-026>030-037>042-050>054-066-310500-
   NORTHEAST IOWA

CITY           SKY/WX    TMP DP  RH WIND       PRES   REMARKS
CEDAR RAPIDS   CLEAR     67  66  97 CALM      29.90S
CHARLES CITY * CLEAR     64  64 100 CALM      29.92R
CLINTON *      CLEAR     66  64  94 S3        29.93R
DECORAH *      CLOUDY    68  68 100 CALM      29.90R
DUBUQUE        CLEAR     64  64 100 S3        29.91S
MONTICELLO *   CLEAR     66  64  94 CALM      29.90S
OELWEIN *      CLEAR     64  64 100 SW3       29.92R
WATERLOO       CLEAR     66  63  90 CALM      29.89S
$$

IAZ064-065-067-068-078-310500-
   EAST CENTRAL IOWA

CITY           SKY/WX    TMP DP  RH WIND       PRES   REMARKS
DAVENPORT      CLEAR     66  64  93 S3        29.91S
IOWA CITY      CLEAR     67  65  93 CALM      29.91R
MT. PLEASANT * CLEAR     68  66  94 SE3       29.92R
MUSCATINE *    CLEAR     66  64  94 CALM      29.91R FOG
QUAD CITIES    CLEAR     67  65  93 S3        29.91R
$$

IAZ062-063-075>077-085>089-095>099-310500-
   SOUTHEAST IOWA

CITY           SKY/WX    TMP DP  RH WIND       PRES   REMARKS
BURLINGTON     LGT RAIN  69  68  96 CALM      29.91R
FAIRFIELD *    CLEAR     66  64  94 SE5       29.91S
FORT MADISON * CLEAR     70  70 100 CALM      29.92S
KEOKUK *       CLEAR     70  68  94 CALM      29.91S
OSKALOOSA *      N/A     66  66 100 S6        29.91R
CENTERVILLE *  CLEAR     68  68 100 S5        29.93R
OTTUMWA        CLEAR     67  65  93 SE5       29.90S
WASHINGTON *   CLEAR     64  64 100 SE5       29.91R FOG
$$

ABBREVIATIONS USED IN REMARKS
   TC - TEMPERATURES IN CELSIUS
  WCI - WIND CHILL INDEX
   HX - HEAT INDEX
  VSB - VISIBILITY
$$




USA.gov is the U.S. government's official web portal to all federal, state and local government web resources and services.